FW0772 Weather Reports


Display with metric or nautical units.
time (UTC)temp
F
wind
direction
speed
MPH
gust
MPH
rain 1hr
in
rain 24hr
in
rain mn
in
humidity
%
barometer
mb
20191211110107 36 135 2.0 9.0 0.00 0.00 0.00 83 1011.0
20191211104704 36 133 1.0 5.0 0.00 0.00 0.00 83 1011.2
20191211103153 36 66 2.0 7.0 0.00 0.00 0.00 83 1011.3
20191211101714 36 211 1.0 9.0 0.00 0.00 0.00 83 1011.6
20191211100118 36 165 2.0 7.0 0.00 0.00 0.00 83 1011.8
20191211094559 36 232 1.0 6.0 0.00 0.00 0.00 84 1012.0
20191211093049 36 137 1.0 6.0 0.00 0.00 0.00 84 1012.2
20191211091545 35 148 1.0 6.0 0.00 0.00 0.00 84 1012.3
20191211090055 35 217 2.0 7.0 0.00 0.00 0.00 84 1012.4
20191211084517 35 134 1.0 7.0 0.00 0.00 0.00 85 1012.4
20191211081526 35 184 2.0 9.0 0.00 0.00 0.00 85 1012.6
20191211080014 35 157 2.0 8.0 0.00 0.00 0.00 85 1012.6
20191211074541 34 175 2.0 7.0 0.00 0.00 0.00 86 1012.6
20191211073010 34 117 1.0 6.0 0.00 0.00 0.00 86 1012.7
20191211071528 34 117 1.0 7.0 0.00 0.00 0.00 86 1012.9
20191211070017 34 201 2.0 8.0 0.00 0.00 0.00 86 1012.8
20191211064548 34 208 1.0 11.0 0.00 0.00 0.00 86 1012.7
20191211063009 34 220 1.0 6.0 0.00 0.00 0.00 87 1012.7
20191211061528 34 246 1.0 7.0 0.00 0.00 0.00 87 1012.8
20191211060314 34 209 2.0 7.0 0.00 0.00 0.00 88 1012.9
20191211051817 34 179 3.0 9.0 0.00 0.00 0.00 89 1013.3
20191211050250 34 213 2.0 7.0 0.00 0.00 0.00 89 1013.5
20191211044747 34 257 3.0 9.0 0.00 0.00 0.00 90 1013.5
20191211043252 34 231 3.0 7.0 0.00 0.00 0.00 91 1013.5
20191211041733 33 55 2.0 7.0 0.00 0.00 0.00 92 1013.6
20191211040355 33 150 3.0 8.0 0.00 0.00 0.00 93 1014.0
20191211034706 33 246 2.0 8.0 0.00 0.00 0.00 94 1014.2
20191211033207 33 224 2.0 6.0 0.00 0.00 0.00 95 1014.7
20191211031819 32 125 1.0 6.0 0.00 0.00 0.00 95 1014.8
20191211030100 32 194 1.0 4.0 0.00 0.00 0.00 95 1014.9
20191211024808 32 181 1.0 6.0 0.00 0.00 0.00 96 1015.2
20191211023157 32 95 2.0 7.0 0.00 0.00 0.00 96 1015.6
20191211021726 32 173 2.0 7.0 0.00 0.00 0.00 97 1015.8
20191211020135 31 142 1.0 6.0 0.00 0.00 0.00 97 1016.0
20191211014602 31 208 1.0 4.0 0.00 0.00 0.00 97 1016.5
20191211013050 32 125 0.0 5.0 0.00 0.00 0.00 97 1017.0
20191211011602 31 130 0.0 4.0 0.00 0.00 0.00 97 1017.1
20191211010144 32 161 1.0 5.0 0.00 0.00 0.00 98 1017.2
20191211004547 32 244 1.0 6.0 0.00 0.00 0.00 98 1017.3
20191211003031 32 167 2.0 6.0 0.00 0.00 0.00 98 1017.5
20191211001539 32 115 1.0 6.0 0.00 0.00 0.00 98 1017.6
20191211000020 32 151 1.0 5.0 0.00 0.00 0.00 98 1018.0
20191210234516 32 229 1.0 6.0 0.00 0.00 0.00 98 1018.3
20191210233043 32 194 0.0 8.0 0.00 0.00 0.00 98 1018.3
20191210231533 31 191 1.0 4.0 0.00 0.00 0.00 98 1018.7
20191210230003 31 151 0.0 4.0 0.00 0.01 0.00 98 1018.9
20191210224501 31 122 0.0 3.0 0.00 0.01 0.00 98 1019.2
20191210223331 31 179 0.0 2.0 0.00 0.01 0.00 98 1019.3
20191210222006 31 124 0.0 4.0 0.00 0.01 0.00 98 1019.6
20191210220430 31 169 0.0 3.0 0.00 0.01 0.00 98 1019.8
20191210215215 30 128 0.0 3.0 0.00 0.01 0.00 98 1020.1
20191210213309 30 124 0.0 2.0 0.00 0.01 0.00 98 1020.5
20191210211819 30 164 0.0 1.0 0.00 0.01 0.00 98 1020.7
20191210210327 30 151 0.0 2.0 0.00 0.01 0.00 98 1020.8
20191210204834 29 138 0.0 2.0 0.00 0.01 0.00 97 1020.8
20191210203149 29 142 0.0 1.0 0.00 0.01 0.00 97 1020.8
20191210201926 30 142 0.0 0.0 0.00 0.01 0.00 97 1020.9
20191210200337 30 144 0.0 1.0 0.00 0.01 0.00 97 1021.0
20191210194750 30 121 0.0 0.0 0.00 0.01 0.00 97 1021.2
20191210193310 30 121 0.0 2.0 0.00 0.01 0.00 97 1021.4
20191210191919 29 165 0.0 1.0 0.00 0.01 0.00 97 1021.4
20191210190234 29 171 0.0 1.0 0.00 0.01 0.00 97 1021.5
20191210184740 29 171 0.0 1.0 0.00 0.06 0.00 97 1021.5
20191210183324 28 174 0.0 1.0 0.00 0.06 0.00 96 1021.7
20191210181758 27 257 0.0 0.0 0.00 0.06 0.00 96 1021.7
20191210180333 27 257 0.0 0.0 0.00 0.06 0.00 95 1021.8
20191210174814 27 257 0.0 0.0 0.00 0.06 0.00 95 1021.9
20191210173248 28 257 0.0 0.0 0.00 0.06 0.00 95 1021.8
20191210171715 28 257 0.0 0.0 0.00 0.06 0.00 95 1021.9
20191210170219 27 257 0.0 0.0 0.00 0.06 0.00 94 1022.0
20191210164816 28 257 0.0 0.0 0.00 0.06 0.00 94 1022.3
20191210163221 28 257 0.0 0.0 0.00 0.06 0.00 94 1022.3
20191210161645 28 257 0.0 0.0 0.00 0.06 0.00 94 1022.2
20191210160249 28 257 0.0 0.0 0.00 0.06 0.00 92 1022.2
20191210154612 29 257 0.0 0.0 0.00 0.06 0.00 92 1022.3
20191210153158 30 257 0.0 0.0 0.00 0.06 0.00 91 1022.4
20191210151559 32 257 0.0 0.0 0.00 0.06 0.00 90 1022.4
20191210150046 33 257 0.0 0.0 0.00 0.06 0.00 89 1022.3
20191210144647 34 246 0.0 1.0 0.00 0.06 0.00 87 1022.1
20191210143131 37 246 0.0 0.0 0.00 0.06 0.00 85 1022.0
20191210141640 38 246 0.0 1.0 0.00 0.06 0.00 84 1022.0
20191210140049 38 275 0.0 2.0 0.00 0.06 0.00 84 1022.1
20191210134613 38 229 2.0 5.0 0.00 0.06 0.00 82 1021.9
20191210133237 39 264 2.0 4.0 0.00 0.06 0.00 80 1021.6
20191210131600 40 285 3.0 5.0 0.00 0.06 0.00 79 1021.6
20191210130049 40 261 3.0 7.0 0.00 0.06 0.00 78 1021.5
20191210124538 41 250 1.0 5.0 0.00 0.06 0.00 77 1021.5
20191210123045 41 288 2.0 5.0 0.00 0.06 0.00 75 1021.2
20191210121523 42 286 2.0 5.0 0.00 0.06 0.00 75 1021.3
20191210120054 42 277 1.0 5.0 0.00 0.06 0.00 77 1021.3
20191210114631 41 279 3.0 7.0 0.00 0.06 0.00 78 1021.3
20191210113024 41 264 2.0 7.0 0.00 0.06 0.00 79 1021.1
20191210111536 41 277 1.0 6.0 0.00 0.06 0.00 80 1020.8